GFSCGP_prec_radar_003.txt.gz
Reflectivity
-20 -20 -20 -20 -20 -20 -20 -20 -20 -20 -20 -20 -20 -20 -20 -20 -20 -20 -20 -20 -20 -20 -20 -20 -20 -20 -20 -20 -20 -20 -20 -20 -20 -20 -20 -20 -19 14 9 13 11 -7 -4 -20
-20 -20 -20 -20 -20 -20 -20 -19 -17 -20 -20 -20 -20 -20 -20 -20 -20 -20 -20 -20 -20 -20 -20 -20 -20 -20 -20 -20 -20 -20 -20 -20 -20 -8 2 -20 -20 7 4 14 13 2 -18 -20
-20 -20 -20 -20 -20 -17 -12 -20 -20 -20 -20 -20 -20 -20 -20 -20 -20 -20 -20 -20 -20 -20 -20 -20 -20 -20 -20 -20 -20 -20 -18 -20 -20 3 -4 13 -16 5 3 10 7 -14 -20 -20
-20 -20 -20 -20 -20 -20 -20 -20 -20 -20 4 -5 -20 -20 -20 -20 -20 -20 -20 -20 -20 -20 -20 -20 -20 -20 -20 -20 -20 -2 -20 -20 -20 -19 5 -20 -20 -20 -20 4 -6 -20 -20 -20
-20 -20 -20 -20 -20 -20 -20 -20 -20 -20 3 1 -5 12 -20 -20 -20 -20 -20 -20 -20 -20 -20 -20 -20 -20 -20 -20 -20 -20 -20 -20 16 -17 -20 -20 1 -20 -20 -5 -20 -20 -20 -20
-20 -20 -20 -20 -20 -20 -20 -20 -20 -20 -3 5 -20 -20 -20 -20 -20 -20 -20 -20 -20 -20 -20 -20 -20 -20 -20 -20 -20 -20 -20 -20 -20 -20 -20 -19 -13 -20 -20 -20 -20 -20 -20 -20
-17 -20 -20 -20 -20 -20 -20 6 0 12 12 -11 -20 -20 -20 -20 -20 -20 -20 -20 -20 -20 -20 -20 -20 -20 -20 -20 -20 -20 -20 -20 -20 -20 -20 10 -18 -20 -20 -20 -20 -20 -20 -20
-20 -20 -20 -20 -20 -20 -20 -18 -2 -14 -8 -20 -20 -20 -20 -20 -20 -20 -20 -20 -20 -20 -20 -20 -20 -20 -20 -20 -20 -20 -20 -20 -20 -20 0 3 -15 -20 -20 -20 -20 -20 -20 -20
-20 -20 -20 -20 -20 -20 6 1 -8 23 19 16 -19 -20 -20 -20 -20 -20 -20 -20 -20 -20 -20 -20 -20 -20 -20 -20 -20 -20 -20 -20 -20 1 10 2 1 -20 -20 -20 -20 -20 -20 -20
-1 -9 -20 -20 -20 -20 -19 -17 6 13 16 2 -20 -20 -20 -20 -20 -20 -20 -20 -20 -20 -20 -20 -20 -20 -20 -20 -20 -20 -20 -20 3 10 -2 -20 -20 -20 -20 -20 -20 -20 -20 -20
-3 -9 -20 -18 -10 -20 -9 -1 2 3 25 13 -18 -20 -20 -20 -20 -20 -20 -20 -20 -20 -20 -20 -20 -20 -20 -20 -20 -20 -20 -20 -9 -16 -20 -20 -20 -20 -20 -20 -20 -20 -20 -20
-20 -16 5 -20 -20 -20 -11 1 -1 11 -12 -20 -20 -20 -20 -20 -20 -20 -20 -20 -20 -20 -20 -20 -20 -20 -20 -20 -20 -20 -9 -3 10 -20 -20 -20 -20 -20 -20 -20 -20 -20 -20 -20
-20 9 -19 -20 -17 -11 17 13 25 9 15 -8 -20 -19 -3 -20 -20 -20 -19 -20 -20 -20 -20 -20 -20 -20 -20 -20 -20 -20 7 -8 -16 -20 -20 -20 -20 -20 -20 -20 -20 -20 -20 -20
-20 2 -20 -20 7 32 19 8 15 24 11 -20 -20 -6 -18 -20 -20 -8 -20 -15 -20 -20 -20 -20 -20 -20 -20 -20 -20 -20 -14 -9 -20 -20 -20 -20 -20 -20 -20 -20 -20 -20 -20 -20
-12 -15 -11 -20 3 29 33 18 2 17 -10 -19 -20 -20 -20 -20 -3 -4 -19 -3 -20 -20 -20 -20 -20 -20 -20 -20 -20 -20 -20 -20 -20 -20 -20 -20 -20 -20 -20 -20 -20 -20 -20 -20
-3 2 12 -20 -11 23 25 12 10 -18 -20 -20 -20 -20 -20 -20 -20 -19 23 -20 -20 -20 -20 -20 -20 -20 -20 -20 -20 -20 -20 -20 -20 -20 -20 -20 -20 -20 -20 -20 -20 -20 -20 -20
17 4 3 -5 5 29 9 -2 1 2 -20 -20 -13 -5 -14 -13 30 31 20 -0 11 9 7 -13 -20 -20 -20 -20 -20 -20 -20 -20 -20 -20 -20 -20 -20 -20 -20 -20 -20 -20 -20 -20
-9 -3 25 -10 -1 17 29 20 -2 -20 -20 -20 3 13 19 29 30 -5 -20 -20 -8 -20 -20 -20 -20 -20 -20 -20 -20 -20 -20 -20 -20 -20 -20 -20 -20 -20 -20 -20 -20 -20 -20 -20
-20 -16 13 14 21 11 -11 -5 -20 -20 -20 -20 8 16 21 15 21 24 9 7 -20 -20 -18 -20 -20 -20 -12 -9 -20 -20 -20 -20 -20 -20 -20 -20 -20 -20 -20 -20 -20 -20 -20 -20
-19 -15 15 -15 -14 -1 -4 -20 -20 -20 -20 6 7 -1 2 -20 -19 6 20 16 21 8 -8 7 9 -12 -20 -20 -20 -20 -20 -20 -20 -20 -20 -20 -20 -20 -20 -20 -20 -20 -20 -20
-20 -18 -19 -10 -12 -20 -20 -20 -16 -20 -20 4 7 -1 -12 4 -5 -20 -6 -20 -18 4 3 -17 -20 -20 -20 -20 -20 -20 -20 -20 -20 -20 -20 -20 -20 -20 -20 -20 -20 -20 -20 -20
-20 -20 -20 -20 -20 -20 -20 -20 -20 -20 -20 -20 -8 -13 -3 5 6 16 9 -2 3 -12 -13 -1 -2 -20 -20 -20 -20 -20 -20 -20 -20 -20 -20 -20 -20 -20 -20 -20 -20 -20 -20 -20
-20 -20 -20 -20 -20 -20 -20 -20 -20 -20 -20 -20 12 -20 -20 -20 -20 -20 -20 -19 -20 -20 -20 -20 -20 -20 -20 -20 -20 -20 -20 -20 -20 -20 -20 -20 -20 -20 -20 -20 -20 -20 -20 -20
-20 -20 -20 -20 -20 -20 -20 -20 -20 -20 -20 -20 -20 -20 -20 -20 -15 -15 -20 -20 -20 -20 -20 -20 -20 -20 -20 -20 -20 -20 -20 -20 -20 -20 -20 -20 -20 -20 -20 -20 -20 -20 -20 -20
-20 -20 -20 -20 -20 -20 -20 -20 -20 -20 -20 -20 -20 -20 -20 -20 -11 -20 -20 -20 -20 -20 -20 -20 -20 -20 -20 -20 -20 -20 -20 -20 -20 -20 -20 -20 -20 -20 -20 -20 -20 -20 -20 -20
-20 -20 -20 -20 -20 -20 -20 -20 -20 -20 -20 -20 -20 -20 -20 -20 -20 -20 -20 -20 -20 -20 -20 -20 -20 -20 -20 -20 -20 -20 -20 -20 -20 -20 -20 -20 -20 -20 -20 -20 -20 -20 -20 -20

GFSCGP_prec_radar_006.txt.gz
Reflectivity
-6 -3 -5 -20 -20 -20 -20 -20 -20 -20 -20 -20 -20 -20 -20 -20 -20 -20 -20 -20 -20 -20 -20 -20 -20 -20 -20 -20 -20 -20 -20 -20 -20 -19 -20 -20 -20 -20 -20 -20 -20 -20 -5 -20
-20 -20 -20 -20 -20 -20 -20 -20 -20 -20 -20 -20 -20 -20 -20 -20 -20 -20 -20 -20 -20 -20 -20 -20 -20 -20 -20 -20 -20 -20 -20 -20 -20 -20 10 -20 21 -20 -20 -20 -8 -19 -7 -11
-20 -20 -20 -20 -20 -20 -20 -20 -20 -20 -20 -20 -20 -20 -20 -20 -20 -20 -20 -20 -20 -20 -20 -20 -20 -20 -20 -20 -20 -20 -20 -20 -20 -20 -20 -12 -20 -20 -20 -20 -11 3 8 -20
-20 -20 -20 -20 -20 -20 -20 -20 -20 -20 -5 -11 -20 -20 -20 -20 -20 -20 -20 -20 -20 -20 -20 -20 -20 -20 -20 -20 -20 -20 -20 -20 -20 -20 -20 -20 -20 -20 3 -17 4 5 -1 -20
-20 -20 -20 -20 -20 -20 -19 -20 -20 -20 -5 -3 -20 -14 -20 -20 -20 -20 -20 -20 -20 -20 -20 -20 -20 -20 -20 -20 -20 -20 -20 -20 -20 -20 -20 -20 20 -20 -20 -5 12 -5 -9 -20
-20 -20 -20 -20 -20 -20 -20 -11 -0 -2 -16 -2 -20 -20 -20 -20 -20 -20 -20 -20 -20 -20 -20 -20 -20 -20 -20 -20 -20 -20 -20 -20 -20 -20 -20 -20 -20 -20 -20 -15 -18 -9 -20 -20
-15 -17 -20 -20 -20 -20 -1 4 -4 1 11 -20 -20 -20 -20 -20 -20 -20 -20 -20 -20 -20 -20 -20 -20 -20 -20 -20 -20 -20 -20 -20 -20 -20 -20 -20 -20 -20 -0 -20 -20 -20 -20 -20
-18 -20 -20 -20 -20 -20 -20 -5 -17 -20 -20 -15 -20 -12 -20 -20 -20 -20 -20 -20 -20 -20 -20 -20 -20 -20 -20 -20 -20 -20 -20 -20 -20 -20 -20 -18 -20 -4 -20 -20 -20 -20 -20 -20
-9 -20 -20 -20 -20 -20 3 3 -19 11 -12 13 1 -20 -20 -20 -20 -20 -20 -20 -20 -20 -20 -20 -20 -20 -20 -20 -20 -20 -20 -20 -20 -20 -20 -20 -3 13 -20 -20 -20 -20 -20 -20
-4 -10 -20 -20 -20 -20 -3 -8 12 15 11 12 -8 -20 -20 -20 -20 -17 -20 -20 -20 -20 -20 -20 -20 -20 -20 -20 -20 -20 -20 -20 -20 -20 -20 -17 13 -20 -20 -20 -20 -20 -20 -20
2 -15 -15 -1 -0 -20 -11 5 8 -3 16 9 3 -18 -20 -20 -18 -3 -20 -20 -20 -20 -20 -20 -20 -20 -20 -20 -20 -20 -20 -20 -20 -20 -20 13 -18 -20 -20 -20 -20 -20 -20 -20
-20 7 8 -19 -20 -20 -20 -7 7 22 17 21 10 -13 -20 -20 -20 -20 -20 -20 -20 -20 -20 -20 -20 -20 -20 -20 -20 -20 -20 -20 -20 -20 13 -16 19 -19 -20 -20 -20 -20 -20 -20
-4 10 -15 -20 -16 -16 -3 -20 1 23 27 15 15 -12 5 4 -12 -20 -20 -20 -20 -20 -20 -20 -20 -20 -20 -20 -20 -20 -20 -20 -20 -8 -1 -7 -20 -20 -20 -20 -20 -20 -20 -20
-20 0 -20 -20 -20 10 21 -16 18 11 17 -19 1 -20 -20 -20 -20 -20 -20 -20 -20 -20 -20 -20 -20 -20 -20 -20 -20 -20 -20 -20 -4 16 -17 -20 -20 -20 -20 -20 -20 -20 -20 -20
2 -1 2 -20 -20 -13 2 4 14 22 -15 7 -18 -20 -20 -20 -20 -20 -20 -20 -20 -20 -20 -20 -20 -20 -20 -20 -20 -20 -0 -1 12 -12 -20 -20 -20 -20 -20 -20 -20 -20 -20 -20
10 -7 7 -20 -20 -20 -0 2 6 12 4 1 1 -20 -20 -20 -20 -20 -20 -20 -20 -20 -20 -20 -20 -20 -20 -20 -20 -19 -16 17 11 -20 -20 -20 -20 -20 -20 -20 -20 -20 -20 -15
5 -6 12 -20 -20 -20 -11 20 0 -14 -6 -2 -8 -20 -16 -20 -16 -8 18 -18 -20 -20 -20 -20 -20 -20 -20 -20 -17 13 5 6 -2 -20 -15 2 -20 -20 -20 -20 -20 -20 -20 -20
-9 -12 20 -11 -19 6 -4 -11 -2 -17 -20 -20 -20 -1 22 32 32 19 -20 -20 -20 -20 -20 -20 -20 -20 -20 -12 7 -2 -16 -20 -14 5 -16 -20 -20 -20 -20 -20 -20 -20 -20 -20
-13 13 28 9 7 -15 -19 -14 3 -20 -20 -18 -14 -0 25 28 11 -19 12 11 -20 -20 -20 -20 -20 -10 -13 -20 -10 9 10 -13 -20 -20 -20 -20 -20 -20 -20 -20 -20 -20 -20 -20
-20 -10 16 0 -1 -18 -3 -20 15 24 4 -20 10 12 29 12 -15 -20 -20 -20 -20 13 -20 -19 -19 -17 -20 -20 -20 -20 -20 -20 -20 -20 -20 -20 -20 -20 -20 -20 -20 -20 -20 -20
-5 20 7 5 2 -20 -6 -13 -20 -20 2 -17 -5 -11 -14 1 6 -6 -12 -10 -19 -1 8 10 -9 -20 -18 -20 -20 -20 -20 -20 -20 -20 -20 -20 -20 -20 -20 -20 -20 -20 -20 -20
-20 -15 -12 -20 -16 -20 -20 -20 -20 -20 -20 -20 -15 27 8 -20 -20 -20 -19 5 14 13 -17 -20 -20 -20 -20 -13 -18 -20 -20 -20 -20 -20 -20 -20 -20 -20 -20 -20 -20 -20 -20 -20
-20 -20 -20 -20 -20 -20 -20 -20 -20 -20 -20 -20 -20 -18 13 20 30 30 14 -18 -16 5 16 3 12 9 -1 -19 -20 -20 -20 -20 -20 -20 -20 -20 -20 -20 -20 -20 -20 -20 -20 -20
-20 -20 -20 -20 -20 -20 -20 -20 -20 -20 -20 -20 -17 -20 -20 -20 -20 -20 -20 -20 -11 -20 -20 -20 -20 -20 -20 -20 -20 -20 -20 -20 -20 -20 -20 -20 -20 -20 -20 -20 -20 -20 -20 -20
-20 -20 -20 -20 -20 -20 -20 -20 -20 -20 -20 -20 -15 -14 -20 -20 -20 -20 -20 -20 -20 -20 -20 -20 -20 -20 -20 -20 -20 -20 -20 -20 -20 -20 -20 -20 -20 -20 -20 -20 -20 -20 -20 -20
-20 -20 -20 -20 -20 -20 -20 -20 -20 -20 -20 -20 -20 -20 -1 -20 -20 -20 -20 -19 -20 -20 -20 -20 -20 -20 -20 -20 -20 -20 -20 -20 -20 -20 -20 -20 -20 -20 -20 -20 -20 -20 -20 -20

GFSCGP_prec_radar_012.txt.gz
Reflectivity
-20 -20 -20 -20 -20 -20 -20 -20 -20 -20 -20 -20 -20 -20 -20 -20 -20 -20 -20 -20 -20 -20 -20 -20 -20 -20 -20 -20 -20 -20 -20 -20 -20 -20 -20 -7 -1 -20 -20 -20 -20 -20 -20 -20
-20 -20 -20 -20 -20 -20 -20 -20 -20 -20 -20 -20 -20 -20 -20 -20 -20 -20 -20 -20 -20 -20 -20 -20 -20 -20 -20 -20 -20 -20 -20 -20 -20 -20 -20 2 -10 -20 -20 1 -20 -20 -20 -20
-20 -20 -20 -20 -20 -20 -20 -20 -20 -20 -20 -20 -20 -20 -20 -20 -20 -20 -20 -20 -20 -20 -20 -20 -20 -20 -20 -20 -20 -20 -20 -20 -20 5 -3 -17 -20 -20 -20 2 -20 -20 -20 -20
-20 -20 -20 -20 -20 -20 -20 -20 -20 -20 -20 -20 -20 -20 -20 -20 -20 -20 -20 -20 -20 -20 -20 -20 -20 -20 -20 -20 -20 -20 -20 -20 -20 -20 -20 -20 16 -14 -20 -14 25 -20 -20 -20
-20 -20 -20 -20 -20 -20 -20 -20 -20 -20 -20 -20 -20 -20 -20 -20 -20 -20 -20 -20 -20 -20 -20 -20 -20 -20 -20 -20 -20 -20 -20 -20 6 -18 -20 -20 -20 -20 -20 -8 -18 -20 -20 -15
-20 -20 -20 -20 -20 -20 -20 -20 -20 -20 -20 -20 -20 -20 -20 -20 -20 -20 -20 -20 -20 -20 -20 -20 -20 -20 -20 -20 -20 -20 -20 -20 9 17 -20 -20 -20 -20 -20 -20 -17 -20 -1 -20
-20 -20 -20 -20 -20 -20 -20 -20 -20 -16 -11 -20 -20 -20 -20 -20 -20 -20 -20 -20 -20 -20 -20 -20 -20 -20 -20 -20 -20 -20 -20 -20 -20 13 -20 -20 -20 -20 -20 -20 10 -6 -20 -20
-20 -20 -20 -20 -20 -20 -20 -20 -20 -20 -20 -20 -20 -20 -20 -20 -20 -20 -20 -20 -20 -20 -20 -20 -20 -20 -20 -20 -20 -20 -20 -8 -17 -20 -20 -20 -20 -20 -20 16 16 -20 -20 -20
-20 -20 -20 -20 -20 -20 -18 -20 -20 -20 -20 -20 -20 -20 -20 -20 -20 -20 -20 -20 -20 -20 -20 -20 -20 -20 -20 -20 -20 -20 -20 -20 -16 -20 -20 -20 -20 -20 -20 5 11 -20 -20 -20
-20 -18 -20 -20 -20 -20 -20 -20 -14 3 -20 -20 -20 -20 -20 -20 -20 -20 -20 -20 -20 -20 -20 -20 -20 -20 -20 -20 -20 -20 -20 12 13 -20 -20 -17 -20 -20 -20 -8 15 -20 23 -0
-20 -20 -20 -20 -20 -20 -20 -18 -2 -16 -19 -19 -20 -20 -20 -20 -20 -20 -20 -20 -20 -20 -20 -20 -20 -20 -20 -20 -20 -20 -20 4 7 -20 -20 -20 -20 -7 -20 18 -20 -6 -9 -6
-20 -20 -20 -20 -20 -20 -20 -20 -20 4 -20 -20 -20 -20 -20 -20 -20 -14 -20 -20 -20 -20 -20 -20 -20 -20 -20 -20 -20 -20 -7 14 -20 -19 -20 -10 11 5 -6 -8 -7 -1 -13 -13
-20 -14 -20 -20 -20 -20 -20 -20 -20 -16 4 -10 -16 -20 -20 -19 -1 -13 5 -20 -20 -20 -20 -20 -20 -10 -18 -13 -11 -3 31 -15 14 -17 16 9 9 -20 -20 -17 16 -14 -0 -3
-20 -11 -20 -20 -20 -20 -20 -20 -20 1 12 -20 -20 -20 -20 -13 -0 -14 12 24 9 -4 -4 -2 -9 10 -9 -20 32 24 22 8 -20 -20 1 9 -18 -20 -1 15 -17 19 3 7
-16 -20 -20 -20 -20 -20 -20 -20 -19 17 -2 -3 -13 -16 -20 -6 -3 -12 -13 -17 -20 -20 -20 -13 9 -20 -13 28 19 15 11 -11 -20 -20 6 -1 -20 5 12 -18 22 20 -4 -16
-20 -10 -14 -20 -20 -20 -20 -20 -20 -20 -16 -4 -15 -20 -0 3 -9 -20 -20 -20 -20 -20 -20 -20 -20 -20 -6 3 -17 -20 1 9 11 -20 -20 -20 15 -17 -14 18 -3 -20 -20 -20
-9 -20 -20 -20 -20 -20 -20 -20 -20 -13 1 -5 -1 -5 -8 -19 -12 -20 -11 -20 -20 -20 -20 -20 -20 -12 8 -12 13 -20 14 -1 14 -12 -15 23 -3 29 25 8 22 -8 -20 -11
-11 -20 -17 -14 -20 -20 -20 -20 -20 -20 -20 -19 -2 -11 -20 -20 -15 -15 -14 -20 -20 -20 -20 5 -5 -0 7 -1 -17 -20 13 7 9 -14 19 33 47 39 28 26 -10 -4 10 11
-13 -10 1 -2 -20 -20 -20 -20 -20 -20 -20 -19 25 -20 -20 -10 -9 -6 8 -20 -11 3 -1 7 -3 -5 -17 -20 -7 18 21 0 20 36 36 16 21 30 20 30 16 11 -15 -20
11 -2 0 5 -8 -20 -20 -20 -20 -20 -18 -20 3 5 10 -9 -20 3 -10 -15 10 3 -8 -20 -4 10 -1 -3 1 10 27 28 35 19 33 35 20 -4 -8 -20 -20 -20 -20 3
1 20 2 -8 -6 -20 -20 -20 -20 -20 -20 -20 -20 -15 9 -13 -19 13 16 2 -19 -20 -3 7 5 11 21 28 39 39 40 40 38 35 31 27 23 11 -20 -20 -16 -7 -18 -20
-20 -10 -12 -4 2 -20 -20 -20 -20 -20 -20 -20 -20 -20 -12 -15 -2 -10 -2 28 24 20 28 18 31 30 31 35 31 -6 -12 11 6 -0 1 -20 -20 -20 -17 -13 -20 -20 -20 -20
-19 -20 -19 -20 -20 -20 -20 -20 -20 -20 -20 -20 -20 -20 -20 -20 -18 -20 4 3 22 -3 7 8 -18 -7 15 -2 -19 -20 -20 -20 -20 -20 -20 -20 -20 -20 -20 -20 -20 -20 -20 -20
-20 -20 -20 -20 -20 -20 -20 -20 -20 -20 -20 -20 -20 -20 -20 -20 -20 -20 -20 -20 -20 -20 -20 -14 15 -19 -19 -18 -20 -20 -20 -20 -20 -20 -20 -20 -20 -20 -20 -20 -20 -20 -20 -20
-16 -20 -20 -20 -20 -20 -20 -20 -20 -20 -20 -20 -20 -20 -20 -20 -20 6 -20 -20 -20 1 -18 -17 -11 -20 -20 -20 -20 -20 -20 -20 -20 -20 -20 -20 -20 -20 -20 -20 -20 -20 -20 -20
-20 -20 -20 -20 -20 -20 -20 -20 -20 -20 -20 -20 -20 -20 -20 -20 -20 -20 -20 -20 -20 -20 -20 -19 -4 -6 -20 -20 -20 -20 -20 -20 -20 -20 -20 -20 -20 -20 -20 -20 -20 -20 -20 -20

GFSCGP_prec_radar_015.txt.gz
Reflectivity
7 22 -8 -20 -20 -20 -20 -20 -20 -20 -20 -20 -20 -20 -20 -20 -20 -20 -20 -20 -20 -20 -20 -20 -20 -20 -20 -20 -20 -20 -20 -20 -20 -20 -20 -20 -20 -20 9 15 -18 -20 -20 -20
-20 -20 -20 -20 -14 -20 -20 -20 -20 -20 -20 -20 -20 -20 -20 -20 -20 -20 -20 -20 -20 -20 -20 -20 -20 -20 -20 -20 -20 -20 -20 -20 -20 -20 -20 2 -20 -20 -12 -9 -12 -18 -20 -20
-20 -20 -20 -20 -20 -20 -20 -20 -20 -20 -20 -20 -20 -20 -20 -20 -20 -20 -20 -20 -20 -20 -20 -20 -20 -20 -20 -20 -20 -20 -20 -20 -20 -20 -1 -20 3 -20 -20 -20 -17 -14 -1 -13
-20 -20 -20 -20 -20 -20 -20 -20 -20 -20 -20 -20 -20 -20 -20 -20 -20 -20 -20 -20 -20 -20 -20 -20 -20 -20 -20 -20 -20 -20 -20 -20 -20 20 5 -20 10 -20 -5 -17 -17 -20 1 -13
-20 -20 -20 -20 -20 -20 -20 -20 -20 -20 -20 -20 -20 -20 -20 -20 -20 -20 -20 -20 -20 -20 -20 -20 -20 -20 -20 -20 -20 -20 -20 -20 -20 -20 -20 13 2 -18 19 19 21 -20 2 -17
-18 -20 -20 -20 -20 -20 -20 -20 -20 -20 -20 -20 -20 -20 -20 -20 -20 -20 -20 -20 -20 -20 -20 -20 -20 -20 -20 -20 -20 -20 -20 -20 -20 -20 -20 -12 -20 -20 5 10 -7 -20 13 16
-20 -20 -20 -20 -20 -20 -20 -20 -20 -20 -20 -20 -20 -20 -20 -20 -20 -20 -20 -20 -20 -20 -20 -20 -20 -20 -20 -20 -20 -20 -20 -20 -20 -20 -20 -20 -20 -20 13 15 9 -20 3 -2
-20 -20 -20 -20 -20 -20 -20 -20 -20 -20 -20 -20 -20 -20 -20 -20 -20 -20 -20 -20 -20 -20 -20 -20 -20 -20 -20 -20 -20 -20 -20 -20 -20 3 5 -20 -20 21 22 13 -16 -20 -20 18
-20 -20 -20 -20 -20 -20 -20 -20 -20 -20 -20 -20 -20 -20 -20 -20 -20 -20 -20 -20 -20 -20 -20 -20 -20 -20 -20 -20 -20 -20 -20 -20 -20 -18 12 -1 -20 17 -20 -20 -12 24 -18 -7
-20 -20 -20 -20 -20 -20 -20 -20 -20 -20 -20 -20 -20 -20 -20 -20 -20 -20 -20 -20 -20 -20 -20 -20 -20 -20 -20 -20 -20 -20 -20 -20 -20 -20 13 -20 21 1 -20 -20 8 11 16 4
-20 -20 -20 -20 -20 -20 -20 -20 -20 -20 -20 -20 -20 -20 -20 -20 -20 -20 -20 -20 -20 -20 -20 -20 -20 -20 -20 -20 -20 -20 -20 -20 -20 -6 -20 -20 14 -20 -20 -20 -20 16 15 21
-20 -20 -20 -20 -20 -20 -20 -20 -20 -20 -20 -20 -20 -20 -20 -20 -20 -20 -18 -20 -20 -20 -20 -20 -20 -20 -20 -20 -20 -20 -20 -20 -18 22 -20 20 -14 -20 -20 -2 -3 17 13 14
-20 -20 -20 -17 -20 -20 -20 -20 -20 -20 -17 -20 -18 -20 -20 -20 -20 -20 -20 -20 -20 -20 -19 -20 -20 -20 -20 -20 -20 -20 -20 -20 -20 12 -10 -20 -1 -17 -18 -7 13 16 16 -12
-20 -16 -20 -20 -20 -20 -20 -20 -20 -11 6 -20 -20 -20 -20 -17 -11 -11 -20 -20 -20 -20 -15 -20 -20 -20 -20 -20 -20 -20 -19 -20 -20 0 19 -20 9 8 10 15 22 10 -16 23
-20 -20 -20 -20 -20 -20 -20 -20 -20 -20 -20 7 -19 -20 -20 -14 -5 2 -15 -20 -20 -20 -20 -20 -20 -20 -20 -20 10 21 28 28 21 20 -0 14 -3 14 7 17 12 9 1 13
-20 -20 -20 -20 -20 -20 -20 -20 -20 -20 -20 -20 -20 -16 -5 -9 -10 -20 -10 -20 -20 -20 -20 -20 -20 -20 -20 -14 25 28 18 22 9 25 21 -20 13 15 17 13 22 27 23 7
-11 -20 -20 -20 -20 -20 -20 -20 -20 -20 -20 -16 -16 -20 -18 -20 -20 -18 -14 -17 -20 -20 -20 -20 -20 -20 -4 31 21 25 39 28 20 7 8 -18 -9 -3 20 -2 26 28 23 23
-20 -20 -20 -20 -20 -20 -20 -20 -20 -20 -20 -20 -20 -1 -16 -18 -13 4 -11 -19 -20 -20 -20 -20 -20 3 0 25 30 16 20 26 9 4 -1 -12 19 28 -0 31 24 33 21 28
-20 -20 -20 -20 -20 -20 -20 -20 -20 -20 -20 -20 -20 8 -2 -12 -18 -15 -19 11 -6 3 0 7 12 11 11 15 10 7 8 20 27 -8 11 23 29 33 41 40 38 37 29 32
9 -7 -5 -18 -8 -20 -20 -20 -20 -20 -20 -20 -20 -14 -19 -4 -16 5 -19 13 16 11 15 -16 -13 -5 1 -10 -18 5 34 21 29 33 39 44 41 39 28 14 18 3 3 -20
9 11 0 -11 -11 -20 -20 -20 -20 -20 -20 -20 -20 -20 -20 -18 -20 -16 3 0 -3 -2 -9 2 -1 -6 19 10 29 33 28 26 29 39 32 22 30 33 11 1 -20 -20 -20 -8
-20 -20 -9 2 -17 -20 -20 -20 -20 -20 -20 -20 -20 -20 -20 -20 -20 1 8 12 12 3 2 11 17 31 39 36 34 31 33 36 23 35 7 1 -12 -20 -20 -20 -5 3 -17 -20
-20 -20 -20 -20 -20 -20 -20 -20 -20 -20 -20 -20 -20 -20 -20 -20 -20 -20 -20 -18 -19 4 14 -9 10 19 7 7 -10 -19 -16 1 -18 -11 8 -13 -20 -20 -19 -20 -20 -20 -20 -20
-20 -16 -20 -20 -20 -20 -20 -20 -20 -20 -20 -20 -20 -20 -20 -20 -20 -20 -20 -20 -20 -18 -20 -16 -20 -17 -20 -20 -20 -20 -16 -14 -18 -17 -5 -12 -20 -20 -20 -20 -20 -20 -20 -20
-20 -20 -20 -20 -20 -20 -20 -20 -20 -20 -20 -20 -20 -20 -20 -20 -20 -20 -20 -20 -20 -20 -17 -14 -20 -20 -20 -20 -20 -20 -14 -20 -17 -20 -20 -20 -20 -20 -20 -20 -20 -20 -20 -20
-20 -20 -20 -20 11 -20 -20 -20 -20 -20 -20 -20 -20 -20 -20 -20 -20 -20 -20 -20 -20 -20 -20 -20 -7 -17 -9 -20 -20 -20 -20 -20 -20 -20 -20 -20 -20 -20 -20 -20 -20 -20 -20 -20

GFSCGP_prec_radar_018.txt.gz
Reflectivity
-20 1 27 -20 -20 -20 -20 -20 -20 -20 -20 -20 -20 -20 -20 -20 -20 -20 -20 -20 -20 -20 -20 -20 -20 -20 -20 -20 -20 -20 -20 -20 -20 -20 19 19 -14 -20 -20 -20 -20 -20 -20 -20
23 23 9 -3 -18 -20 -11 -20 -20 -20 -20 -20 -20 -20 -20 -20 -20 -20 -20 -20 -20 -20 -20 -20 -20 -20 -20 -20 -20 -20 -20 -20 -19 -20 -20 24 22 23 -19 -20 -20 1 -1 -20
-20 -19 -10 -20 -20 -20 -20 -20 -20 -20 -20 -20 -20 -20 -20 -20 -20 -20 -20 -20 -20 -20 -20 -20 -20 -20 -20 -20 -20 -20 -20 -20 -20 -20 22 21 20 27 -12 -17 -20 -6 -8 4
-20 -20 -20 -20 -20 -20 -20 -20 -20 -20 -20 -20 -20 -20 -20 -20 -20 -20 -20 -20 -20 -20 -20 -20 -20 -20 -20 -20 -20 -20 -20 -20 -20 -20 -20 -20 -20 -20 -20 -20 -20 12 -15 5
-20 -20 -20 -20 -20 -20 -20 -20 -20 -20 -20 -20 -20 -20 -20 -20 -20 -20 -20 -20 -20 -20 -20 -20 -20 -20 -20 -20 -20 -20 -20 -20 -20 -20 -9 -19 13 -20 -5 21 17 19 -17 -20
-20 -20 -20 -20 -20 -20 -20 -20 -20 -20 -20 -20 -20 -20 -20 -20 -20 -20 -20 -20 -20 -20 -20 -20 -20 -20 -20 -20 -20 -20 -20 -20 -20 -20 6 -20 -20 -20 20 17 14 9 7 6
-20 -20 -20 -20 -20 -20 -20 -20 -20 -20 -20 -20 -20 -20 -20 -20 -20 -20 -20 -20 -20 -20 -20 -20 -20 -20 -20 -20 -20 -20 -20 -20 -20 -20 5 9 -20 -20 -20 15 12 -11 14 -20
-20 -20 -20 -20 -20 -20 -20 -20 -20 -20 -20 -20 -20 -20 -20 -20 -20 -20 -20 -20 -20 -20 -20 -20 -20 -20 -20 -20 -20 -20 -20 -20 -20 -20 -20 -18 -19 -20 -20 10 -1 -19 -0 18
-20 -20 -20 -20 -20 -20 -20 -20 -20 -20 -20 -20 -20 -20 -20 -20 -20 -20 -20 -20 -20 -20 -20 -20 -20 -20 -20 -20 -20 -20 -20 -20 -20 -20 -20 -20 -20 -20 -14 -20 -20 -13 -18 15
-20 -20 -20 -20 -20 -20 -20 -20 -20 -20 -20 -20 -20 -20 -20 -20 -20 -20 -20 -20 -20 -20 -20 -20 -20 -20 -20 -20 -20 -20 -20 -20 -20 -20 -20 -20 -20 -20 15 7 19 -1 11 11
-20 -20 -20 -20 -20 -20 -20 -20 -20 -20 -20 -20 -20 -20 -20 -20 -20 -20 -20 -20 -20 -20 -20 -20 -20 -20 -20 -20 -20 -20 -20 -20 -20 -20 -20 -20 -20 -20 -20 23 18 15 -6 -11
-20 -20 -20 -20 -20 -20 -20 -20 -20 -20 -20 -20 -20 -20 -20 -20 -20 -20 -20 -20 -20 -20 -20 -20 -20 -20 -20 -20 -20 -20 -20 -20 -20 -20 -20 -20 -20 -20 9 19 19 11 -20 18
-20 -20 -20 -20 -20 -20 -20 -20 -20 -20 -20 -20 -20 -20 -20 -20 -20 -20 -20 -20 -20 -20 -20 -20 -20 -20 -20 -20 -20 -20 -20 -20 -20 -20 -20 -20 8 21 20 19 13 -20 -12 -18
-20 -20 -20 -20 -20 -20 -20 -20 -20 -20 -12 -20 -20 -20 -20 -20 -20 -20 -20 -20 -20 -20 -20 -20 -20 -20 -20 -20 -20 -20 -20 -20 -20 -20 -3 -20 23 0 24 11 -20 -20 -20 4
-20 -20 -20 -20 -20 -20 -20 -20 -20 -20 -20 -20 -20 -20 -20 -20 -20 -16 -20 -20 -20 -20 -20 -20 -20 -20 -20 -20 -20 -20 -20 -20 -10 -17 4 -20 19 10 21 9 8 -4 -7 18
-20 -20 -20 -20 -20 -20 -20 -20 -20 -20 -20 -20 -20 -20 -20 -20 -20 -20 -20 -10 7 13 9 -16 -20 -20 -20 -20 -20 -20 -20 -20 -20 -18 -20 -20 -20 15 26 5 1 -19 10 12
-20 -20 -20 -20 -20 -20 -20 -20 -20 -20 -20 -20 -20 -20 -19 -12 -20 -13 -20 -10 9 -14 -20 -20 -20 -20 -20 -5 7 29 22 5 -20 -20 -17 -6 -1 17 15 -19 -4 17 22 18
-20 -20 -20 -20 -20 -20 -20 -20 -20 -20 -20 -20 -20 -20 -16 -10 -1 -1 -14 -4 -3 -9 -20 -20 -20 -20 -19 12 35 34 41 15 3 24 38 39 29 -13 -11 2 12 12 31 22
-4 -20 -20 -20 -20 -20 -20 -20 -20 -20 -20 -20 -20 -20 -20 -2 2 -19 -18 7 -19 -8 -8 -15 -10 -20 -20 -5 22 26 35 39 38 48 30 23 -1 10 8 26 29 40 38 33
4 -4 2 -20 -20 -20 -20 -20 -20 -20 -20 -20 -20 -20 -20 -17 -7 -0 -11 11 11 9 -13 -20 -19 -19 -20 -20 16 12 28 34 12 20 17 15 17 20 23 37 35 26 36 29
9 21 8 -15 -19 -20 -20 -20 -20 -20 -20 -20 -20 -20 -20 -20 -20 -6 -11 -1 -16 -13 -16 -15 3 12 7 13 18 32 11 13 31 34 37 35 31 37 32 32 25 19 6 -17
-20 -16 11 6 -16 -20 -20 -20 -20 -20 -20 -20 -20 -20 -20 -20 -20 4 -4 -9 13 -10 -15 -2 11 20 21 22 29 30 25 5 9 19 20 15 16 6 9 -4 -10 -20 -20 -20
-20 -20 -20 -20 -20 -20 -20 -20 -20 -20 -20 -20 -20 -20 -20 -20 -11 -8 -3 -20 -19 -16 -20 -20 4 -19 3 -9 -15 -17 2 7 3 -19 -20 -20 -20 -20 -20 -20 -20 -20 -20 -20
-20 -20 -13 -20 -20 -20 -20 -20 -20 -20 -20 -20 -20 -20 -20 -20 -13 -18 -16 -20 -20 -20 -20 -20 -20 -20 -20 3 -1 -20 -20 -20 -20 -20 -20 -20 -20 -20 -20 -20 -20 -20 -20 -20
-20 -20 -17 -20 -20 -20 -20 -20 -20 -20 -20 -20 -20 -20 -20 -20 -20 -15 -7 -20 -7 -5 -15 -20 -20 -20 -20 -20 -20 -20 -20 -20 -20 -20 -20 -20 -20 -20 -20 -20 -20 -20 -20 -20
-20 -20 -20 -20 -9 -2 -20 -20 -20 -20 -20 -20 -20 -20 -20 -20 -20 -20 -12 -20 -20 4 -20 -18 -18 1 -20 -20 -20 -20 -20 -20 -20 -20 -20 -20 -20 -20 -20 -20 -20 -20 -20 -20

GFSCGP_prec_radar_021.txt.gz
Reflectivity
18 13 -0 -20 -20 -20 -20 -20 -20 -20 -20 -20 -20 -20 -20 -20 -20 -20 -20 -20 -20 -20 -20 -20 -20 -20 -20 -20 -20 -20 -20 -20 -20 -20 -20 -20 -20 -20 -20 -4 -20 -20 -20 -20
11 26 6 -18 -19 -20 -20 -20 -20 -20 -20 -20 -20 -20 -20 -20 -20 -20 -20 -20 -20 -20 -20 -20 -20 -20 -20 -20 -20 -20 -20 -20 -20 -20 -20 -20 -20 -20 -13 11 -20 -20 -18 -20
18 14 -14 36 -0 -19 -17 -20 -20 -20 -20 -20 -20 -20 -20 -20 -20 -20 -20 -20 -20 -20 -20 -20 -20 -20 -20 -20 -20 -20 -20 -20 -20 -20 -10 -11 -17 -20 -13 -20 -20 -19 -10 -10
29 21 17 -10 -20 -20 -20 -20 -20 -20 -20 -20 -20 -20 -20 -20 -20 -20 -20 -20 -20 -20 -20 -20 -20 -20 -20 -20 -20 -20 -20 -20 -20 -20 -20 -18 -20 -13 -20 -20 13 -20 18 26
28 -20 -20 -20 -20 -20 -20 -20 -20 -20 -20 -20 -20 -20 -20 -20 -20 -20 -20 -20 -20 -20 -20 -20 -20 -20 -20 -20 -20 -20 -20 -20 -20 -20 -20 -20 -9 -18 -20 -20 22 23 3 -20
-20 -20 -20 -20 -20 -20 -20 -20 -20 -20 -20 -20 -20 -20 -20 -20 -20 -20 -20 -20 -20 -20 -20 -20 -20 -20 -20 -20 -20 -20 -20 -20 -20 -20 -20 -20 -18 -2 5 18 23 23 22 20
-20 -20 -20 -20 -20 -20 -20 -20 -20 -20 -20 -20 -20 -20 -20 -20 -20 -20 -20 -20 -20 -20 -20 -20 -20 -20 -20 -20 -20 -20 -20 -20 -20 -20 -20 -20 -20 -20 -20 -3 20 21 -20 -20
-20 -20 -20 -20 -20 -20 -20 -20 -20 -20 -20 -20 -20 -20 -20 -20 -20 -20 -20 -20 -20 -20 -20 -20 -20 -20 -20 -20 -20 -20 -20 -20 -20 -20 -20 -16 -20 -20 -20 14 7 23 -20 19
-20 -20 -20 -20 -20 -20 -20 -20 -20 -20 -20 -20 -20 -20 -20 -20 -20 -20 -20 -20 -20 -20 -20 -20 -20 -20 -20 -20 -20 -20 -20 -20 -20 -20 -20 -20 -20 -20 -20 -20 19 19 21 16
-20 -20 -20 -20 -20 -20 -20 -20 -20 -20 -20 -20 -20 -20 -20 -20 -20 -20 -20 -20 -20 -20 -20 -20 -20 -20 -20 -20 -20 -20 -20 -20 -20 -20 -20 -20 -20 -20 -20 -20 -20 -6 -10 11
-20 -20 -20 -20 -20 -20 -20 -20 -20 -20 -20 -20 -20 -20 -20 -20 -20 -20 -20 -20 -20 -20 -20 -20 -20 -20 -20 -20 -20 -20 -20 -20 -20 -20 -20 -20 -20 -20 -20 -20 -20 -20 -5 2
-20 -20 -20 -20 -20 -20 -20 -20 -20 -20 -20 -20 -20 -20 -20 -20 -20 -20 -20 -20 -20 -20 -20 -20 -20 -20 -20 -20 -20 -20 -20 -20 -20 -20 -20 -20 -20 -20 -20 -20 -20 -20 17 9
-20 -20 -20 -20 -20 -20 -20 -20 -20 -20 -20 -20 -20 -20 -20 -20 -20 -20 -20 -20 -20 -20 -20 -20 -20 -20 -20 -20 -20 -20 -20 -20 -20 -20 -20 -20 -20 -20 -20 -20 -11 -14 20 21
-20 -20 -20 -20 -20 -20 -20 -20 -20 -20 -20 -20 -20 -20 -20 -20 -20 -6 -20 -20 -20 -20 -20 -20 -20 -20 -20 -20 -20 -20 -20 -20 -20 -20 -20 -20 -20 -20 -20 -7 -20 2 17 21
-20 -20 -20 -20 -20 -20 -20 -20 -20 -20 -20 -20 -20 -20 -20 -20 -2 -20 -20 -20 -20 -20 -20 -20 -20 -20 -20 -20 -20 -20 -20 -20 -20 -20 9 -15 -20 -20 -20 -20 -20 18 18 20
-20 -20 -20 -20 -20 -20 -20 -20 -20 -20 -20 -20 -20 -20 -20 -20 -6 -20 -20 -20 -20 -20 -20 -20 -20 -20 -20 -20 -20 -6 3 7 -18 -20 -20 -20 -20 -20 -20 -20 -17 22 -20 9
-20 -20 -20 -20 -20 -20 -20 -20 -20 -20 -20 -20 -20 -20 -20 -20 -20 1 -15 -20 -20 -20 -20 -20 -20 -20 -19 -9 4 31 31 25 18 -20 -20 -20 -19 -20 -14 -9 0 25 24 35
-20 -20 -20 -20 -20 -20 -20 -20 -20 -20 -20 -20 -20 -20 -20 -20 -20 -16 -20 -20 -20 -20 -18 -16 -7 -18 -10 18 26 14 19 16 15 5 -20 -20 -20 -11 2 34 15 2 33 1
-20 -20 -20 -20 -20 -20 -20 -20 -20 -20 -20 -20 -20 -20 -20 -20 -20 -6 -20 -16 -17 -15 -20 -20 -15 -20 9 -8 29 26 14 22 15 9 9 27 22 31 31 32 36 9 20 28
-9 -15 -6 -20 -20 -20 -20 -20 -20 -20 -20 -20 -20 -20 -20 -20 -20 -19 -20 -19 -20 -20 -20 -7 10 3 1 14 24 33 21 21 36 37 39 37 35 24 26 28 18 19 23 36
2 6 -14 -2 -11 -20 -20 -20 -20 -20 -20 -20 -20 -20 -20 -20 -20 -12 -20 -20 -20 -20 -20 -13 -10 -11 10 23 15 7 22 33 32 33 31 29 29 25 30 22 26 35 28 30
-19 -6 -7 -9 3 -20 -20 -20 -20 -20 -20 -20 -20 -20 -20 -20 -20 -20 -20 -20 -20 -20 -13 -20 -20 -20 -9 6 16 9 1 4 7 25 37 35 33 34 36 30 21 20 20 14
-20 -20 -20 -20 -20 -20 -20 -20 -20 -20 -20 -20 -20 -20 -20 -20 -20 -20 -20 -20 -20 -20 -18 -20 -20 -3 -20 -20 -20 -20 -6 -0 -13 -20 -18 -18 3 -5 -20 -19 -20 -20 -20 -20
-20 -19 -12 -20 -20 -20 -20 -20 -20 -20 -20 -20 -20 -20 -20 -20 -20 -20 -20 -20 -20 -20 -20 -20 -18 -19 -20 -20 -20 -20 -20 -20 -20 -20 -20 -20 -20 -20 -20 -20 -20 -20 -20 -20
-20 -17 -20 -20 -20 -20 -20 -20 -20 -20 -20 -20 -20 -20 -20 -20 -20 -20 -19 -20 -20 -20 -20 -20 -20 -20 -20 -20 -20 -20 -20 -20 -20 -20 -20 -20 -20 -20 -20 -20 -20 -20 -20 -20
-20 -20 -20 -20 -20 -20 -20 -20 -20 -20 -20 -20 -20 -20 -20 -20 -20 -20 -20 -19 -20 -16 -20 -20 -20 -20 -20 -20 -20 -20 -20 -20 -20 -20 -20 -20 -20 -20 -20 -20 -20 -20 -20 -20

GFSCGP_prec_radar_027.txt.gz
Reflectivity
18 3 -20 -7 -20 -20 -20 -20 -20 -20 -20 -20 -20 -20 -20 -20 -20 -20 -20 -20 -20 -20 -20 -20 -20 -20 -20 -20 -20 -20 -20 -20 -20 -20 -4 5 -11 -15 -4 -20 -20 27 -20 -20
21 12 -13 -20 -20 -20 -20 -20 -20 -20 -20 -20 -20 -20 -20 -20 -20 -20 -20 -20 -20 -20 -20 -20 -20 -20 -20 -20 -20 -20 -20 -20 -20 -20 -20 -20 -20 -20 -20 16 -16 -20 -20 -20
14 0 -19 -20 0 -20 -20 -20 -20 -20 -20 -20 -20 -20 -20 -20 -20 -20 -20 -20 -20 -20 -20 -20 -20 -20 -20 -20 -20 -20 -20 -20 -20 -20 -20 -20 -20 -20 -11 -17 -1 -20 -20 -3
29 20 13 1 0 -20 -20 -20 -20 -20 -20 -20 -20 -20 -20 -20 -20 -20 -20 -20 -20 -20 -20 -20 -20 -20 -20 -20 -20 -20 -20 -20 -20 -20 -20 -20 -20 -20 -20 -20 -20 -20 -20 6
25 18 6 3 -9 -20 -20 -20 -20 -20 -20 -20 -20 -20 -20 -20 -20 -20 -20 -20 -20 -20 -20 -20 -20 -20 -20 -20 -20 -20 -20 -20 -20 -20 -20 -20 -20 -20 -20 -20 -20 -20 16 19
24 39 29 37 -1 8 -20 -20 -20 -20 -20 -20 -20 -20 -20 -20 -20 -20 -20 -20 -20 -20 -20 -20 -20 -20 -20 -20 -20 -20 -20 -20 -20 -20 -20 -20 -20 -20 -20 -20 -20 -20 -20 8
8 3 24 27 6 11 -20 -20 -20 -20 -20 -20 -20 -20 -20 -20 -20 -20 -20 -20 -20 -20 -20 -20 -20 -20 -20 -20 -20 -20 -20 -20 -20 -20 -20 -20 -20 -8 -20 -20 -20 -20 -20 -20
-20 -12 18 -5 -20 -20 -20 -20 -20 -20 -20 -20 -20 -20 -20 -20 -20 -20 -20 -20 -20 -20 -20 -20 -20 -20 -20 -20 -20 -20 -20 -20 -20 -20 -20 -20 -20 -20 -20 -6 -20 -20 -20 -20
-11 -20 -20 -20 -20 -20 -20 -20 -20 -20 -20 -20 -20 -20 -20 -20 -20 -20 -20 -20 -20 -20 -20 -20 -20 -20 -20 -20 -20 -20 -20 -20 -20 -20 -20 -20 -20 -20 -20 -20 5 -20 -20 -20
-20 -20 -20 -20 -20 -20 -20 -20 -20 -20 -20 -20 -20 -20 -20 -20 -20 -20 -20 -20 -20 -20 -20 -20 -20 -20 -20 -20 -20 -20 -20 -20 -20 -20 -20 -20 -20 -20 -20 -20 -20 -20 -20 -20
-20 -20 -20 -20 -20 -20 -20 -20 -20 -20 -20 -20 -20 -20 -20 -20 -20 -20 -20 -20 -20 -20 -20 -20 -20 -20 -20 -20 -20 -20 -20 -20 -20 -20 -20 -20 -20 -20 -20 -20 -20 -20 -20 -20
-20 -20 -20 -20 -20 -20 -20 -20 -20 -20 -20 -20 -20 -20 -20 -20 -20 -20 -20 -20 -20 -20 -20 -20 -20 -20 -20 -20 -20 -20 -20 -20 -20 -20 -20 -20 -20 -20 -20 -20 -20 -20 -20 -20
-20 -20 -20 -20 -20 -20 -20 -20 -20 -20 -20 -20 -20 -20 -20 -20 -20 -20 -20 -20 -20 -20 -20 -20 -20 -20 -20 -20 -20 -20 -20 -20 -20 -20 -20 -20 -20 -20 -20 -20 -20 -20 -20 -20
-20 -20 -20 -20 -20 -20 -20 -20 -20 -20 -20 -20 -20 -20 -20 -20 -20 -20 -20 -20 -20 -20 -20 -20 -20 -20 -20 -20 -20 -20 -20 -20 -20 -20 -20 -20 -20 -1 -17 -20 -20 -20 -20 -20
-20 -20 -20 -20 -20 -20 -20 -20 -20 -20 -20 -20 -20 -20 -20 -20 -20 -20 -20 -20 -20 -20 -20 -20 -20 -20 -20 -20 -20 -20 -20 -20 -20 -20 -20 -20 11 3 -17 -20 -20 -20 -1 -1
-20 -20 -20 -20 -20 -20 -20 -20 -20 -20 -20 -20 -20 -20 -20 -20 -20 -20 -20 -20 -20 -20 -20 -20 -20 -20 -20 -20 -20 -20 -20 -20 -20 -20 -9 16 -2 -20 -20 -4 7 -20 12 21
-20 -20 -20 -20 -20 -20 -20 -20 -20 -20 -20 -20 -20 -20 -20 -20 -20 -20 -20 -20 -20 -20 -20 -20 -20 -20 -20 -20 -3 -20 -20 -20 -20 -20 -2 -4 -20 -20 -2 -2 12 12 12 -10
-20 -20 -20 -20 -20 -20 -20 -20 -20 -20 -20 -20 -20 -20 -20 -20 -20 -20 -20 -20 -20 -20 -20 -20 -20 -20 -9 -6 10 -4 -20 -20 -20 -20 -17 -20 -20 -20 -1 2 -11 -11 -7 4
-20 -20 -20 -20 -20 -20 -20 -20 -20 -20 -20 -20 -20 -20 -20 -20 -20 -20 -20 -20 -20 -20 -20 -20 -20 -20 -20 -20 -1 -4 -20 -20 -9 -4 -6 -12 -16 -14 -9 -11 -7 21 6 14
-20 -20 -20 -20 -20 -20 -20 -20 -20 -20 -20 -20 -20 -20 -20 -20 -20 -20 -20 -20 -20 -20 -20 -20 -20 -20 -20 -20 -12 -20 -20 -20 -7 -16 -4 1 5 7 11 9 14 14 7 30
-7 6 -13 -20 -13 -20 -20 -20 -20 -20 -20 -20 -20 -20 -20 -20 -20 -20 -20 -20 -20 -20 -20 -20 -20 -20 -20 -20 -11 -20 -20 -10 -7 -17 -13 -9 14 22 31 34 36 26 25 23
-20 -20 -10 -20 -20 -20 -20 -20 -20 -20 -20 -20 -20 -20 -20 -20 -20 -20 -20 -20 -20 -20 -20 -20 -20 -20 -20 -20 -20 -20 -20 -20 -20 -18 -4 1 2 23 21 13 9 10 4 -9
-20 -20 -20 -20 -20 -20 -20 -20 -20 -20 -20 -20 -20 -20 -20 -20 -20 -20 -20 -20 -20 -20 -20 -20 -19 -20 -20 -20 -20 -20 -20 -20 -20 -20 -20 -20 -20 -20 -20 -20 -20 -20 -20 -20
-20 -20 -20 -20 -20 -20 -20 -20 -20 -20 -20 -20 -20 -20 -20 -20 -20 -20 -20 -20 -20 -20 -20 -20 -20 -20 -20 -20 -20 -20 -20 -20 -20 -20 -20 -20 -20 -20 -20 -20 -20 -20 -20 -20
-20 -20 -20 -20 -20 -20 -20 -20 -20 -20 -20 -20 -20 -20 -20 -20 -20 -20 -20 -8 -20 -20 -20 -20 -20 -20 -20 -20 -20 -20 -20 -20 -20 -20 -20 -20 -20 -20 -20 -20 -20 -20 -20 -20
-20 -20 -20 -20 -20 -20 -20 -20 -20 -20 -20 -20 -20 -20 -20 -20 -20 -20 -20 -20 -20 -20 -16 -20 -20 -20 -20 -20 -20 -20 -20 -20 -20 -20 -20 -20 -20 -20 -20 -20 -20 -20 -20 -20

GFSCGP_prec_radar_033.txt.gz
Reflectivity
22 12 13 -20 -20 -20 -20 -20 -20 2 -20 -20 -20 -20 -20 -20 -20 -20 -20 -20 -20 -20 -20 -20 -20 -20 -20 -20 -20 -20 -20 -20 -20 -20 -20 -20 -18 1 -20 -20 -20 -20 -20 -20
-1 6 -20 -20 -20 -20 -20 -20 -20 -2 -19 -20 -18 -20 -20 -20 -20 -20 -20 -20 -20 -20 -20 -20 -20 -20 -20 -20 -20 -20 -20 -20 -20 -20 -20 -20 -20 -20 -20 -16 14 -20 -20 -20
11 -10 -19 -20 -20 -20 -20 -20 -20 -20 -20 -20 -20 -20 -20 -20 -20 -20 -20 -20 -20 -20 -20 -20 -20 -20 -20 -20 -20 -20 -20 -20 -20 -20 -20 -20 -20 -20 -20 -14 -20 5 11 -20
1 -17 13 -16 -17 -20 -20 -20 -20 -20 -11 -20 -20 -20 -20 -20 -20 -20 -20 -20 -20 -20 -20 -20 -20 -20 -20 -20 -20 -20 -20 -20 -20 -20 -20 -20 -20 -20 -20 -20 -20 -20 -20 -12
14 -16 4 0 -20 -20 -18 -20 -20 -20 -20 -19 -20 -20 -20 -20 -20 -20 -20 -20 -20 -20 -20 -20 -20 -20 -20 -20 -20 -20 -20 -20 -20 -20 -20 -20 -20 -20 -20 -20 -20 -20 -20 -20
9 26 24 18 10 -20 -20 -20 -20 -20 -20 -20 -20 -20 -20 -20 -20 -20 -20 -20 -20 -20 -20 -20 -20 -20 -20 -20 -20 -20 -20 -20 -20 -20 -20 -20 -20 -20 -20 -20 -20 -20 -14 5
26 31 31 17 9 -8 -20 -19 8 5 -7 -20 -20 -20 -20 -20 -20 -20 -20 -20 -20 -20 -20 -20 -20 -20 -20 -20 -20 -20 -20 -20 -20 -20 -20 -20 -20 -20 -20 -20 -20 -20 -20 -17
34 25 26 -9 -20 -20 -18 3 9 -8 -20 -20 -20 -20 -20 -20 -20 -20 -20 -20 -20 -20 -20 -20 -20 -20 -20 -20 -20 -20 -20 -20 -20 -20 -20 -20 -20 -20 -20 -20 -20 -20 -20 -20
5 10 17 31 6 -19 -7 -20 -20 -20 -20 -20 -20 -20 -20 -20 -20 -20 -20 -20 -20 -20 -20 -20 -20 -20 -20 -20 -20 -20 -20 -20 -20 -20 -20 -20 -20 -20 -20 -20 -20 -20 -20 -20
2 1 2 23 28 13 -19 -20 -16 -20 -20 -20 -20 -20 -20 -20 -20 -20 -20 -20 -20 -20 -20 -20 -20 -20 -20 -20 -20 -20 -20 -20 -20 -20 -20 -20 -20 -20 -20 -20 -20 -20 -20 -20
-20 -20 0 12 4 -6 -4 12 2 -20 -20 -20 -20 -20 -20 -20 -20 -20 -20 -20 -20 -20 -20 -20 -20 -20 -20 -20 -20 -20 -20 -20 -20 -20 -20 -20 -20 -20 -20 -20 -20 -20 -20 -20
-20 -20 -2 -4 -20 -20 -20 -20 -20 -20 -20 -20 -20 -20 -20 -20 -20 -20 -20 -20 -20 -20 -20 -20 -20 -20 -20 -20 -20 -20 -20 -20 -20 -20 -20 -20 -20 -20 -20 -20 -20 -20 -20 -20
-20 -20 -9 -20 -16 -20 -20 -20 -20 -20 -20 -20 -20 -20 -20 -20 -20 -20 -20 -20 -20 -20 -20 -20 -20 -20 -20 -20 -20 -20 -20 -20 -20 -20 -20 -20 -20 -20 -20 -20 -20 -20 -20 -20
-20 -20 -20 -20 -20 -20 -20 -20 -20 -20 -20 -20 -20 -20 -20 -20 -20 -20 -20 -20 -20 -20 -20 -20 -20 -20 -20 -20 -20 -20 -20 -20 -20 -20 -20 -20 -20 -20 -20 -20 -20 -20 -20 -20
-20 -20 -20 -20 -20 -20 -20 -20 -20 -20 -20 -20 -20 -20 -20 -20 -20 -20 -20 -20 -20 -20 -20 -20 -20 -20 -20 -20 -20 -20 -20 -20 -20 -20 -20 -20 -20 -20 -20 -20 -20 -20 -20 -20
-20 -20 -20 -20 -20 -20 -20 -20 -20 -20 -20 -20 -20 -20 -20 -20 -20 -20 -20 -20 -20 -20 -20 -20 -20 -20 -20 -20 -8 -20 -20 -20 -20 -20 -20 -20 -20 -20 -20 -20 -20 -20 -20 -20
-20 -20 -20 -20 -20 -20 -20 -20 -20 -20 -20 -20 -20 -20 -20 -20 -20 -20 -20 -20 -20 -20 -20 -20 -20 -20 -7 -0 -13 -4 -16 -20 -20 -20 -20 -20 -20 -20 -8 6 -15 -20 -20 -20
-20 -20 -20 -3 -20 -20 -20 -20 -20 -20 -20 -20 -20 -20 -20 -20 -20 -20 -20 -20 -20 -20 -20 -20 -20 -20 -20 -13 -5 -4 -4 -20 -20 -20 -20 -20 -20 -20 -16 -17 -20 -19 -20 -18
-20 -1 3 -6 -20 -20 -20 -20 -20 -20 -20 -20 -20 -20 -20 -20 -20 -20 -20 -20 -20 -20 -20 -20 -20 -20 -20 -6 -6 -3 -5 -7 -20 -20 -20 -20 -20 -20 -20 -20 -18 5 -3 9
-20 -20 -16 -19 -20 -20 -20 -20 -20 -20 -20 -20 -20 -20 -20 -20 -20 -20 -20 -20 -20 -20 -20 -20 -20 -20 -20 -20 -19 -20 -17 -14 -20 -19 -9 -14 -7 -20 -20 -20 -20 -20 -20 -20
3 1 1 -20 -19 -20 -20 -20 -20 -20 -19 -20 -20 -20 -20 -20 -20 -20 -20 -20 -20 -20 -20 -20 -20 -20 -20 -20 -20 -20 -20 -11 -2 -5 -20 -20 -20 -20 -20 -20 -20 -20 -20 -20
-20 -16 -18 -13 -15 -20 -20 -20 -20 -20 -20 -20 -20 -20 -20 -20 -20 -20 -20 -20 -20 -20 -20 -20 -20 -20 -20 -20 -20 -20 -20 -14 -13 -20 -20 -20 -20 -20 -20 -20 -20 -20 -20 -20
-20 -20 -20 -20 -20 -20 -20 -20 -20 -20 -20 -20 -20 -20 -20 -20 -20 -20 -20 -20 -20 -20 -20 -20 -20 -20 -20 -20 -20 -20 -20 -20 -20 -20 -20 -20 -20 -20 -20 -20 -20 -20 -20 -20
-20 -20 -20 -20 -20 -20 -20 -20 -20 -20 -20 -20 -20 -20 -20 -20 -20 -20 -20 -20 -20 -20 -20 -20 -20 -20 -20 -20 -20 -20 -20 -20 -20 -20 -20 -20 -20 -20 -20 -20 -20 -20 -20 -20
-20 -20 -20 -20 -20 -20 -20 -20 -20 -20 -20 -20 -20 -20 -20 -20 -20 -20 -20 -20 -20 -20 -20 -20 -20 -20 -20 -20 -20 -20 -20 -20 -20 -20 -20 -20 -20 -20 -20 -20 -20 -20 -20 -20
-20 -20 -20 -20 -20 -20 -20 -20 -20 -20 -20 -20 -20 -20 -20 -20 -20 -20 -20 -20 -20 -20 -20 -20 -20 -20 -20 -20 -20 -20 -20 -20 -20 -20 -20 -20 -20 -20 -20 -20 -20 -20 -20 -20